Regional Weather Roundup
Issued by NWS

Home | Current Version | Previous Version | Graphics & Text | Print | Product List | Glossary On
Versions: 1 2 3 4 5 6 7 8 9 10 11 12 13 14 15 16 17 18 19 20 21 22 23 24 25 26 27 28 29 30 31 32 33 34 35 36 37 38 39 40 41 42 43 44 45 46 47 48 49 50
000
ASUS43 KDMX 292004
RWRIA

WEATHER ROUNDUP FOR IOWA
NATIONAL WEATHER SERVICE DES MOINES IA
  ISSUED BY NWS QUAD CITIES IA IL
200 PM CST THU JAN 29 2015

NOTE: "FAIR" INDICATES FEW OR NO CLOUDS BELOW 12,000 FEET WITH NO
SIGNIFICANT WEATHER AND/OR OBSTRUCTIONS TO VISIBILITY.

* - THESE STATIONS ARE NOT NWS STATIONS...THUS NOT UNDER NWS
QUALITY CONTROL.  THEY ALSO DO NOT REPORT WEATHER SUCH
AS PRECIPITATION OR FOG.

IAZ001>003-012>014-020>022-031>034-043>046-292100-
   NORTHWEST IOWA

CITY           SKY/WX    TMP DP  RH WIND       PRES   REMARKS
CARROLL *      CLOUDY    32  23  69 N29       30.35S WCI  18
CHEROKEE *     CLOUDY    32  26  77 NW14G23   30.38S WCI  22
DENNISON *     CLOUDY    34  25  69 N17G24    30.36S WCI  23
LE MARS *      CLOUDY    34  27  75 N15G22    30.41F WCI  24
ORANGE CITY *  CLOUDY    34  25  69 N16G22    30.39S WCI  23
SIOUX CITY     CLOUDY    36  26  67 NW18      30.41S WCI  26
SPENCER        CLOUDY    31  21  66 NW21G31   30.36S WCI  18
$$

IAZ055>058-069>071-079>083-090>094-292100-
   SOUTHWEST IOWA

CITY           SKY/WX    TMP DP  RH WIND       PRES   REMARKS
ATLANTIC *     CLOUDY    36  25  64 N26       30.37R WCI  23
AUDUBON *      CLOUDY    34  25  69 N15G31    30.37R WCI  24
CLARINDA *     CLOUDY    37  25  60 N23G29    30.40R WCI  26
COUNCIL BLFS * CLOUDY    36  27  69 NW24G36   30.38R WCI  24
CRESTON *      CLOUDY    36  27  69 NW26G36   30.33R WCI  23
HARLAN *       CLOUDY    36  27  69 N22G33    30.41S WCI  24
LAMONI         CLOUDY    37  26  64 N22G28    30.31R WCI  26
RED OAK *      CLOUDY    37  25  60 N17G26    30.40R WCI  28
$$

IAZ047>049-059>061-072>074-084-292100-
   CENTRAL IOWA

CITY           SKY/WX    TMP DP  RH WIND       PRES   REMARKS
AMES           CLOUDY    35  24  64 N28G36    30.29R WCI  22
ANKENY *       CLOUDY    37  27  65 NW18G33   30.30R WCI  27
BOONE *        CLOUDY    36  27  69 NW22G32   30.28S WCI  24
CHARITON *     CLOUDY    36  27  69 NW24      30.28R WCI  24
DES MOINES     CLOUDY    37  25  61 N23G32    30.30R WCI  26
GRINNELL *     CLOUDY    33  27  77 NW23G35   30.24R WCI  21
KNOXVILLE *    CLOUDY    34  25  69 NW20G29   30.26S WCI  22
MARSHALLTOWN   CLOUDY    33  25  72 NW29G40   30.24S WCI  19
PELLA *        CLOUDY    35  27  74 NW20G35   30.28R WCI  24
PERRY *          N/A     35  26  68 NW25G32   30.33R WCI  23
$$

IAZ004>006-015-016-023>025-035-036-292100-
   NORTH CENTRAL IOWA

CITY           SKY/WX    TMP DP  RH WIND       PRES   REMARKS
ALGONA *       CLOUDY    30  23  74 N22G33    30.32R WCI  17
CLARION *      MIX PCPN  32  27  80 NW30G38   30.28S WCI  18
ESTHERVILLE    CLOUDY    28  20  71 NW28G39   30.34S WCI  13
FORT DODGE *   CLOUDY    34  21  60 NW16G36   30.32S WCI  23
MASON CITY     PTSUNNY   33  24  69 NW29G38   30.26R WCI  19
WEBSTER CITY * MOSUNNY   34  28  80 NW29G38   30.28R WCI  20
IOWA FALLS *   CLOUDY    33  26  77 NW29G38   30.26S WCI  19
$$

IAZ007>011-017>019-026>030-037>042-050>054-066-292100-
   NORTHEAST IOWA

CITY           SKY/WX    TMP DP  RH WIND       PRES   REMARKS
CEDAR RAPIDS   CLOUDY    33  27  78 NW23G33   30.17R WCI  21
CHARLES CITY * CLOUDY    32  27  80 NW22G30   30.21R WCI  19
CLINTON *      CLOUDY    36  27  69 NW20G31   30.12R WCI  25
DECORAH *      CLOUDY    32  23  69 N25G35    30.14R WCI  19
DUBUQUE        CLOUDY    34  26  72 N20       30.09R WCI  23
MONTICELLO *   CLOUDY    34  30  86 NW22G29   30.13R WCI  22
OELWEIN *      CLOUDY    32  27  80 NW25G37   30.18R WCI  19
WATERLOO       CLOUDY    33  25  72 NW21G38   30.20R WCI  21
$$

IAZ064-065-067-068-078-292100-
   EAST CENTRAL IOWA

CITY           SKY/WX    TMP DP  RH WIND       PRES   REMARKS
DAVENPORT      CLOUDY    34  28  79 NW20G28   30.12R WCI  23
IOWA CITY      CLOUDY    34  27  75 NW21G32   30.19R WCI  22
MT. PLEASANT * CLOUDY    33  27  76 NW17G26   30.20R WCI  23
MUSCATINE *    CLOUDY    37  28  70 NW23G32   30.18R WCI  26
QUAD CITIES    CLOUDY    35  29  78 NW23G33   30.11R WCI  23
$$

IAZ062-063-075>077-085>089-095>099-292100-
   SOUTHEAST IOWA

CITY           SKY/WX    TMP DP  RH WIND       PRES   REMARKS
BURLINGTON     CLOUDY    36  28  73 NW14G26   30.17R WCI  27
FAIRFIELD *    CLOUDY    34  28  80 NW22G28   30.22R WCI  22
FORT MADISON * CLOUDY    36  28  75 NW24G31   30.19R WCI  24
KEOKUK *       CLOUDY    36  30  80 NW16G24   30.20R WCI  26
OTTUMWA        CLOUDY    34  26  72 NW28G35   30.23S WCI  21
WASHINGTON *   CLOUDY    34  30  86 NW26G35   30.20R WCI  21
$$

ABBREVIATIONS USED IN REMARKS
   TC - TEMPERATURES IN CELSIUS
  WCI - WIND CHILL INDEX
   HX - HEAT INDEX
  VSB - VISIBILITY
$$



USA.gov is the U.S. government's official web portal to all federal, state and local government web resources and services.